Regional Weather Roundup
Issued by NWS Grand Forks, ND

Home | Current Version | Previous Version | Graphics & Text | Print | Product List | Glossary On
Versions: 1 2 3 4 5 6 7 8 9 10 11 12 13 14 15 16 17 18 19 20 21 22 23 24 25 26 27 28 29 30 31 32 33 34 35 36 37 38 39 40 41 42 43 44 45 46 47 48 49 50
000
ASUS43 KFGF 270710
RWRFGF
PRAIRIE TO PINES  WEATHER ROUNDUP
NATIONAL WEATHER SERVICE EASTERN NORTH DAKOTA/GRAND FORKS ND
200 AM CDT SAT MAY 27 2017

 **SATELLITE DATA USED TO AUGMENT SKY COVER AT AUTOMATED STATIONS**
 *****  WEATHER ACROSS EASTERN NORTH DAKOTA  *****

CITY           SKY/WX    TMP DP  RH WIND       PRES   REMARKS
GRAND FORKS    FAIR      55  44  66 SW12      29.78R
GRAND FRKS AFB FAIR      48  42  80 SW7       29.79R
DEVILS LAKE    FAIR      53  43  68 SW8       29.80R
FARGO          FAIR      51  43  74 SW7       29.82S
WAHPETON ARPT  FAIR      50  41  71 CALM      29.85S
$$

 ***** WEATHER ACROSS CENTRAL AND WESTERN NORTH DAKOTA  *****

CITY           SKY/WX    TMP DP  RH WIND       PRES   REMARKS
BISMARCK       FAIR      51  38  60 W5        29.86S
MINOT          FAIR      55  39  54 SW12      29.81R
JAMESTOWN      FAIR      54  42  64 SW8       29.82S
MINOT AFB      MOCLDY    53  40  63 W12       29.79R
GARRISON         N/A     47  36  65 W8        29.84R
WILLISTON      FAIR      52  40  63 W14       29.84S
DICKINSON      FAIR      41  33  73 W8        29.88R
HETTINGER      FAIR      44  35  70 CALM      29.93S
$$

 *****  OTHER AIRPORT OBSERVATIONS IN OUR AREA  *****

CITY           SKY/WX    TMP DP  RH WIND       PRES   REMARKS
WALHALLA       NOT AVBL
GRAFTON AIRPOR FAIR      46  43  87 SW7       29.78S
VALLEY CITY AR FAIR      50  45  81 SW7       29.84S
CANDO          NOT AVBL
CAVALIER APRT  FAIR      52  41  66 SW5       29.74F
GWINNER        SUNNY     52  45  76 MISG      29.85S
SHEYENNE NWR     N/A     47  44  89 CALM      29.95S
ROLLA          CLOUDY    50  41  71 W10       29.77S
 ***** THE ABOVE OBSERVATIONS ARE NON NWS ARE NOT QUALITY
       CONTROLLED AND MAY MIS-REPORT RAIN FOR SNOW...
$$

  *****  WEATHER ACROSS NORTHERN MINNESOTA  *****

CITY           SKY/WX    TMP DP  RH WIND       PRES   REMARKS
FLAG ISLAND    FAIR      54  46  76 W9        29.72S
WARROAD        FAIR      52  45  76 SW7       29.76S
ROSEAU         FAIR      52  45  76 SW7       29.75S
HALLOCK        FAIR      46  39  76 CALM      29.75S
THF RVR FALLS  FAIR      53  42  66 SW9       29.79S
BAUDETTE       FAIR      49  43  80 SW5       29.75S
WASKISH        FAIR      52  46  82 S5        29.79R
CROOKSTON      FAIR      48  43  81 SW8       29.81R
STEPHEN NDAWN    N/A     50  41  71 SW3         N/A
GREENBUSH NDAW   N/A     50  43  76 SW6         N/A
$$
  *****  WEATHER ACROSS CENTRAL AND WEST MINNESOTA  *****

CITY           SKY/WX    TMP DP  RH WIND       PRES   REMARKS
FOSSTON        FAIR      46  41  81 S6        29.82R
BEMIDJI        FAIR      50  43  77 SW6       29.82R
PARK RAPIDS    FAIR      49  40  71 W3        29.83R
ELBOW LAKE     FAIR      50  44  81 CALM      29.86S
WADENA         FAIR      50  43  76 W6        29.84F
DETROIT LAKES  FAIR      54  43  66 SW3       29.85R
MOORHEAD       FAIR      54  43  66 S7        29.84S
FERGUS FALLS   FAIR      52  45  76 SW3       29.84S
MORRIS MN      FAIR      54  46  76 W3        29.85F
STAPLES        FAIR      50  43  76 W5        29.84S
$$
  *****  WEATHER ELSEWHERE ACROSS MINNESOTA  *****

CITY           SKY/WX    TMP DP  RH WIND       PRES   REMARKS
DULUTH         FAIR      54  48  80 NW7       29.79S
INTRNTL FALLS  FAIR      43  40  89 W5        29.77R
ELY            FAIR      50  50 100 CALM      29.78S FOG
CLOQUET        FAIR      52  45  76 W7        29.80S
WHEATON        FAIR      54  43  66 SW3       29.87F
BRAINERD       FAIR      49  45  86 SW5       29.84R
HIBBING        FAIR      43  43 100 CALM      29.79S
ALEXANDRIA     FAIR      48  44  86 W5        29.87S
SAINT CLOUD    FAIR      52  46  80 CALM      29.84S
MINNEAPOLIS    FAIR      61  45  55 CALM      29.85S
$$

  *****  WEATHER ACROSS SOUTH DAKOTA  *****

CITY           SKY/WX    TMP DP  RH WIND       PRES   REMARKS
SIOUX FALLS    FAIR      49  44  83 CALM      29.90S
BROOKINGS      MOCLDY    52  46  80 CALM      29.91R
WATERTOWN      FAIR      50  45  83 CALM      29.89R
HURON          CLOUDY    56  47  71 CALM      29.89S
SISSETON         N/A     53  47  79 CALM      29.86S
ABERDEEN       FAIR      49  40  71 SW6       29.87F
MITCHELL       MOCLDY    56  50  80 CALM      29.90S
PIERRE         CLOUDY    61  42  49 W12       29.91R
MOBRIDGE       FAIR      54  43  66 SE5       29.87R
RAPID CITY     LGT RAIN  50  48  93 W5        29.98F
$$

  *****  SOME WEATHER IN NEARBY STATES *****

CITY           SKY/WX    TMP DP  RH WIND       PRES   REMARKS
GLASGOW MT     FAIR      46  38  73 W7        29.89S
GREAT FALLS MT MOCLDY    47  38  71 SW10      30.00S
CHEYENNE WY    CLOUDY    42  41  96 W6        30.05R FOG
SCOTTSBLUFF NE FAIR      48  45  89 S9        29.96F
OMAHA NE       CLOUDY    57  50  77 N6        29.89R
DES MOINES IA  FAIR      65  61  87 NE3       29.86R
DAVENPORT IA   CLOUDY    58  56  93 E8        29.87F
CHICAGO IL     MOCLDY    56  51  84 NE6       29.86S
EAU CLAIRE WI  MOCLDY    57  55  93 SW5       29.84R
LA CROSSE WI   FAIR      61  58  90 S5        29.87R
$$

  *****  SOME NATIONAL WEATHER *****

CITY           SKY/WX    TMP DP  RH WIND       PRES   REMARKS
LA GUARDIA NY  FAIR      63  53  70 W10       29.81S
RALEIGH NC     FAIR      64  59  83 CALM      29.95S
ATLANTA GA     MOCLDY    69  62  78 CALM      30.03S
NEW ORLEANS LA MOCLDY    77  74  90 S8        29.97F
OKLAHOMA CITY  FAIR      72  68  87 SE8       29.79F
ALBUQUERQUE NM FAIR      61   9  12 E5        30.04R
SALT LAKE CITY FAIR      53  40  61 N5        30.08R
LOS ANGELES CA FAIR      60  55  83 SW9       30.02S
BOISE ID       FAIR      57  41  55 E10       30.06S
SEATTLE WA     FAIR      67  45  45 NE8       30.02R
$$

*** WEATHER ACROSS MANITOBA...SASKATCHEWAN AND ONTARIO ***
                ***ONTARIO***

CITY           SKY/WX    TMP DP  RH WIND       PRES   REMARKS
GERALDTON      LGT RAIN  54  52  94 SW6       29.80S
THUNDER BAY    MOCLDY    48  46  93 E7        29.78S
SIOUX LOOKOUT  PTCLDY    52  52 100 S5        29.71S
TORONTO        CLOUDY    57  55  94 VRB2      29.88R
BIG TROUT LK   CLOUDY    52  50  93 SE3         N/A
PICKLE LAKE    NOT AVBL
DRYDEN         CLEAR     54  48  82 SW6       29.72S
KENORA         PTCLDY    54  46  76 SW7       29.71S
$$
                *** MANITOBA***

CITY           SKY/WX    TMP DP  RH WIND       PRES   REMARKS
BRANDON        PTCLDY    43  41  93 NW3       29.72S
DAUPHIN        CLOUDY    54  45  71 W8        29.67S
ISLAND LAKE    PTCLDY    54  46  76 S5        29.57S
PILOT MOUND      N/A     45  39  81 S5          N/A
THE PAS        NOT AVBL
THOMPSON       LGT RAIN  52  52 100 NE5       29.50S VSB 1
WINNIPEG       CLEAR     52  45  76 SW9       29.71R
LYNN LAKE      LGT RAIN  45  45 100 N8        29.59S FOG
CHURCHILL      LGT RAIN  34  32  93 NE14      29.69F WCI  24
GILLAM         CLEAR     45  45 100 NE6       29.56R
$$
                ***SASKATCHEWAN***

CITY           SKY/WX    TMP DP  RH WIND       PRES   REMARKS
ESTEVAN        PTCLDY    54  43  66 W16G23    29.79S
KINDERSLEY     PTCLDY    48  45  87 S6        29.80S
LLOYDMINSTER   CLEAR     46  43  87 W6        29.78S
PRINCE ALBERT  PTCLDY    45  41  87 W7        29.72R
REGINA         PTCLDY    45  41  87 W10       29.77S
YORKTON          N/A     45  41  87 W9        29.70S
N. BATTLEFORD  CLEAR     43  37  81 VRB2      29.78S
LA RONGE       CLOUDY    50  46  87 W8        29.67S
SASKATOON      CLEAR     41  37  87 NW6       29.78R
SWIFT CURRENT  CLOUDY    50  43  76 VRB2      29.83S
$$
NOTE: THESE ARE AUTOMATED STATIONS WITH LIMITED QUALITY CONTROL
      "FAIR" INDICATES FEW OR NO CLOUDS BELOW 12,000 FEET WITH NO
      SIGNIFICANT WEATHER AND/OR OBSTRUCTIONS TO VISIBILITY.
      SKY/WX - SKY CONDITION AND SIGNIFICANT WEATHER.
      TMP - AIR TEMPERATURE.    DP   - DEWPOINT TEMPERATURE.
      RH  - RELATIVE HUMIDITY.  PRES - PRESSURE.
      HX  - HEAT INDEX.         WCI  - WIND CHILL INDEX.
$




USA.gov is the U.S. government's official web portal to all federal, state and local government web resources and services.